Wind_Speed
23 24 24 24 24 23 23 23 23 23 24 24 25 26 27 27 27 27 28 28 28 28 29 29 28 28 29 29 29 29 29 28 28 28 28 29 30 30 30 30 32 32 32
22 22 22 22 22 21 21 21 21 21 22 22 23 24 25 25 26 27 27 27 26 26 26 26 27 27 27 27 28 27 28 28 28 27 28 28 29 29 30 30 30 30 31
22 22 21 21 21 20 20 20 20 21 21 21 22 22 23 23 24 24 25 25 25 25 25 25 25 26 26 26 26 26 26 27 27 27 28 28 28 29 29 28 28 28 28
22 21 21 20 20 19 18 18 18 19 19 19 20 20 21 21 22 22 23 23 23 22 22 23 23 23 23 24 24 24 24 25 26 26 27 27 27 27 28 27 26 26 26
20 20 19 18 17 17 17 17 17 17 17 18 18 18 19 20 20 20 20 21 21 20 20 20 20 20 20 21 21 22 22 23 24 25 25 25 25 25 25 25 26 26 26
18 17 17 16 15 15 15 15 15 15 16 16 15 15 16 16 16 17 17 17 17 17 17 17 17 17 17 17 18 18 19 19 20 21 21 22 23 22 23 23 24 25 25
16 15 14 14 13 13 13 14 14 14 14 13 13 13 14 13 13 12 12 12 13 13 13 13 13 13 14 14 15 15 15 16 17 18 18 18 19 20 20 21 21 21 22
15 15 14 13 13 13 13 13 13 12 12 11 11 11 10 10 9 10 9 9 9 9 9 9 9 10 11 11 11 11 12 12 13 14 14 15 15 16 16 17 17 18 19
13 13 12 12 12 12 11 11 11 11 11 10 9 8 7 7 7 6 5 5 5 6 6 6 6 6 6 7 7 8 9 8 8 10 11 11 12 12 14 14 14 14 15
10 11 11 11 10 10 9 9 9 9 9 8 7 6 5 5 4 4 3 3 3 3 3 3 3 2 2 3 4 4 5 5 6 7 8 9 10 10 11 11 12 12 12
10 10 9 9 9 8 8 7 7 7 7 7 7 6 5 4 4 4 3 3 3 2 2 2 2 1 1 0 1 1 2 2 3 4 5 5 6 7 7 8 8 10 10
9 8 8 8 7 7 7 7 7 7 7 7 7 7 6 5 5 5 5 5 5 5 6 6 5 5 5 4 4 4 3 3 3 3 3 3 3 4 5 5 7 7 8
7 7 7 7 7 7 7 7 7 7 8 8 8 8 7 7 7 8 9 9 9 9 8 8 8 9 8 8 7 7 6 6 6 5 5 5 5 5 6 6 7 7 8
6 6 6 6 6 7 7 7 8 8 8 9 9 9 9 9 10 10 10 11 11 11 11 10 10 10 10 10 9 9 8 8 8 8 8 8 8 8 8 8 9 9 10
6 6 7 7 7 8 8 8 8 9 10 11 11 11 12 12 12 12 12 13 14 14 14 13 13 13 13 13 13 12 12 11 11 11 10 10 10 9 10 10 10 11 11
6 7 7 8 8 9 9 10 10 10 11 11 12 13 13 14 14 14 15 15 15 15 15 15 15 15 14 14 13 13 13 13 12 12 11 11 11 11 11 12 12 12 13
7 8 8 9 9 10 11 11 12 12 12 13 14 14 14 15 15 15 15 15 15 16 16 16 16 15 15 14 14 14 13 13 12 12 12 12 12 12 12 13 14 14 14
9 9 9 10 11 12 12 12 13 13 14 14 14 14 15 15 16 16 16 16 16 17 16 16 16 15 15 15 14 14 13 13 13 13 13 13 13 13 14 14 15 15 16
10 10 11 11 12 12 12 12 13 13 14 14 15 15 15 16 16 16 16 16 16 16 16 15 15 15 15 14 14 13 13 13 13 13 14 14 14 14 15 16 17 17 18
11 11 11 12 12 12 12 12 13 13 14 14 15 15 16 16 16 15 15 15 15 15 14 14 14 14 14 14 13 13 13 14 14 14 14 15 15 16 16 17 18 19 20
11 12 12 12 12 12 12 12 13 13 13 14 14 14 14 14 14 14 14 14 13 13 13 13 13 13 13 13 13 13 14 14 15 15 15 16 16 17 18 19 20 21 22
10 10 11 11 11 11 11 11 11 12 12 12 12 13 13 13 13 13 13 12 12 12 12 12 12 12 12 12 13 13 14 14 15 16 16 17 18 19 20 21 22 23 24
8 9 9 9 9 10 10 10 10 10 11 11 11 11 11 11 11 11 11 11 10 10 11 11 11 11 11 12 12 13 13 14 15 16 17 19 20 21 22 24 25 26 27
7 7 7 7 8 8 8 8 8 9 9 9 9 9 9 9 9 9 8 8 8 9 9 9 10 10 11 11 12 13 14 15 16 18 19 20 22 23 25 26 28 29 30
4 4 5 5 5 5 5 5 6 7 7 7 7 7 6 6 6 6 6 6 6 7 7 8 9 9 10 11 12 14 15 16 18 19 21 22 24 26 27 29 30 31 32
2 3 3 3 3 3 3 3 4 4 4 4 4 3 3 3 3 4 4 4 5 6 7 8 9 10 11 12 14 15 17 18 20 21 23 25 26 28 29 31 32 33 35
Wind_Direction
297 296 296 295 292 290 287 285 283 282 280 280 278 277 275 274 273 272 270 268 267 266 263 261 261 259 259 258 258 257 258 258 258 257 257 258 258 258 258 260 260 260 263
299 297 298 297 294 292 291 290 288 286 285 284 282 280 278 277 275 273 271 269 268 267 264 262 261 260 258 258 257 256 256 257 257 256 256 258 261 261 260 261 262 264 265
301 300 300 299 297 295 293 292 292 290 289 288 286 283 281 279 277 275 272 270 269 267 265 264 263 262 259 258 257 257 257 256 257 257 257 258 261 263 263 265 265 264 265
302 301 301 301 300 298 297 297 296 294 293 292 290 287 286 284 279 277 275 272 270 268 264 264 264 263 261 258 257 258 258 257 257 257 257 259 261 262 263 265 266 267 267
304 303 302 302 302 303 302 302 300 299 299 298 296 293 291 288 284 280 276 271 270 269 266 264 264 262 262 259 258 259 259 258 257 256 257 260 261 262 264 264 265 267 269
307 307 306 305 305 308 308 306 305 304 305 303 300 299 296 293 291 283 278 274 270 267 265 263 262 261 261 259 257 258 259 258 257 258 258 260 261 262 264 265 267 269 271
312 314 313 311 309 311 313 312 311 309 309 307 304 305 305 304 300 297 288 279 272 268 265 261 259 258 257 257 255 256 257 257 256 258 259 259 261 263 265 268 271 273 273
315 318 317 315 314 314 316 316 314 315 316 316 315 313 312 311 307 304 300 288 277 270 266 262 260 259 256 254 252 256 257 258 257 257 256 258 261 265 266 269 271 274 278
318 321 323 322 321 320 320 320 321 322 320 319 320 321 321 322 323 319 314 302 289 279 275 269 266 257 251 249 252 260 260 261 261 254 257 262 268 271 272 273 276 280 282
324 329 332 332 331 332 332 331 332 333 334 335 336 337 339 344 350 348 336 332 320 306 289 270 252 242 251 263 269 270 268 267 266 263 268 273 274 277 280 281 282 283 286
334 336 338 340 342 344 345 350 353 356 1 6 9 14 14 19 19 28 33 35 43 50 76 91 81 95 118 217 285 290 302 301 297 293 290 292 289 291 293 294 295 295 297
342 346 351 353 355 359 6 13 17 20 23 29 31 34 40 43 52 57 62 68 79 92 96 95 88 81 81 82 77 67 59 49 39 26 7 352 343 338 335 331 327 323 319
355 1 5 9 15 21 28 30 32 36 41 44 44 45 51 58 70 74 78 83 90 95 95 95 94 90 87 83 79 78 76 69 61 54 47 41 32 26 21 13 4 350 338
10 14 16 22 30 36 42 45 50 54 54 53 54 59 66 75 85 87 89 89 89 89 92 94 95 91 87 86 84 79 75 71 68 60 53 51 48 41 30 19 11 4 354
27 31 34 40 47 52 54 59 65 67 68 68 70 73 78 82 87 88 88 89 89 89 92 91 90 87 85 83 80 77 73 70 66 63 59 52 46 38 31 24 17 12 5
43 51 55 58 61 62 69 75 77 76 75 77 76 79 82 84 86 88 89 91 89 88 91 89 87 85 83 80 76 72 69 66 63 59 55 49 42 35 28 21 14 8 5
59 64 66 68 71 76 79 79 80 82 83 83 82 82 84 87 89 89 89 89 89 89 88 87 85 82 79 76 71 66 61 59 56 51 45 38 31 25 19 13 8 4 360
70 73 77 81 84 85 84 83 83 85 86 85 86 87 88 89 89 89 89 88 89 88 88 85 83 80 76 72 68 63 58 53 49 44 38 32 27 20 14 9 5 1 357
79 84 89 91 90 89 89 88 87 88 87 88 89 90 90 90 89 89 87 86 86 86 84 82 79 76 71 66 62 58 53 47 41 36 31 27 23 18 13 8 5 3 359
88 91 92 92 91 91 91 91 91 91 89 89 88 88 88 88 88 89 88 87 85 83 81 78 74 69 63 59 55 50 45 39 34 30 26 22 18 14 9 4 0 358 356
92 93 94 94 93 92 91 92 92 92 91 91 90 88 87 86 87 87 86 84 82 80 76 72 66 60 56 52 47 41 37 32 29 26 22 17 12 8 3 359 356 354 352
97 99 98 96 94 93 92 92 91 90 90 91 91 89 87 86 85 84 83 81 79 76 71 64 58 53 47 42 38 33 29 25 22 18 14 10 6 2 359 356 354 351 348
101 100 97 95 94 94 96 96 95 94 94 94 92 90 88 86 83 82 80 78 73 68 61 55 50 44 40 36 32 28 23 19 15 12 8 5 1 358 355 352 350 347 345
102 101 99 100 100 100 100 101 100 100 99 97 93 89 86 84 81 78 75 70 65 58 51 46 40 35 30 26 22 17 13 9 6 3 0 358 354 351 349 348 346 345 343
111 110 110 113 112 109 107 107 107 107 104 100 95 89 84 78 71 65 59 55 50 43 37 32 25 19 13 9 5 2 359 357 355 353 351 349 347 345 344 343 342 341 339
136 136 135 135 133 128 124 123 122 120 114 107 97 86 75 62 50 40 32 27 21 15 11 7 3 359 356 353 350 349 347 346 345 344 343 342 341 340 339 339 338 337 336
Height
5778 5775 5773 5770 5767 5766 5764 5762 5760 5759 5758 5757 5756 5755 5755 5754 5754 5754 5754 5754 5754 5755 5755 5756 5757 5758 5759 5761 5763 5764 5766 5768 5769 5771 5772 5773 5774 5775 5775 5776 5776 5777 5777
5772 5769 5767 5764 5762 5760 5758 5756 5754 5753 5751 5750 5749 5748 5747 5747 5746 5746 5746 5746 5746 5747 5747 5748 5749 5750 5752 5753 5755 5757 5759 5760 5762 5763 5764 5765 5766 5767 5767 5768 5769 5769 5770
5767 5764 5761 5759 5756 5754 5752 5750 5748 5747 5745 5743 5742 5741 5740 5739 5739 5739 5739 5739 5739 5740 5740 5741 5742 5743 5745 5746 5748 5750 5751 5753 5755 5756 5757 5758 5759 5760 5760 5761 5761 5762 5762
5762 5759 5756 5753 5751 5749 5747 5745 5743 5741 5739 5738 5736 5735 5734 5733 5732 5732 5732 5732 5732 5733 5734 5735 5736 5737 5738 5740 5742 5743 5745 5746 5748 5749 5750 5751 5752 5753 5753 5754 5754 5755 5755
5757 5754 5751 5748 5746 5744 5742 5740 5738 5736 5734 5732 5731 5729 5728 5727 5726 5725 5725 5726 5726 5727 5728 5729 5730 5731 5732 5734 5736 5737 5738 5740 5741 5742 5744 5745 5746 5746 5747 5747 5748 5748 5748
5753 5749 5747 5744 5742 5740 5738 5736 5734 5732 5730 5728 5726 5725 5723 5722 5721 5720 5720 5720 5721 5722 5723 5724 5725 5726 5727 5729 5730 5731 5733 5734 5735 5736 5738 5739 5739 5740 5741 5741 5742 5742 5742
5749 5746 5743 5741 5739 5737 5735 5733 5731 5729 5727 5725 5723 5722 5720 5719 5717 5716 5716 5716 5716 5717 5718 5720 5721 5722 5723 5724 5726 5727 5728 5729 5730 5731 5732 5733 5734 5735 5735 5736 5736 5736 5736
5745 5743 5740 5738 5736 5734 5732 5730 5728 5726 5724 5723 5721 5719 5718 5716 5715 5714 5713 5713 5714 5715 5716 5717 5718 5719 5720 5721 5722 5723 5724 5725 5726 5727 5728 5729 5730 5730 5731 5731 5731 5731 5731
5742 5740 5738 5736 5734 5732 5730 5728 5726 5724 5722 5721 5719 5717 5716 5714 5713 5713 5712 5712 5713 5713 5714 5715 5716 5717 5718 5719 5720 5721 5721 5722 5722 5723 5724 5725 5726 5726 5727 5727 5727 5727 5726
5739 5738 5735 5733 5732 5730 5728 5726 5725 5723 5721 5720 5718 5716 5715 5714 5713 5712 5712 5712 5713 5713 5713 5714 5715 5716 5717 5718 5719 5719 5719 5720 5721 5721 5722 5723 5723 5723 5723 5724 5724 5723 5723
5738 5736 5734 5732 5730 5729 5727 5726 5724 5723 5721 5719 5718 5716 5715 5714 5713 5713 5713 5713 5713 5713 5714 5715 5715 5716 5717 5718 5718 5719 5719 5719 5720 5720 5721 5721 5721 5722 5721 5721 5721 5721 5720
5737 5735 5733 5731 5730 5728 5727 5726 5724 5723 5722 5720 5719 5718 5716 5715 5715 5715 5715 5715 5715 5715 5716 5716 5717 5718 5718 5719 5719 5719 5720 5720 5720 5720 5721 5721 5721 5721 5720 5720 5719 5719 5718
5736 5734 5733 5732 5730 5729 5728 5727 5725 5724 5723 5722 5721 5719 5718 5717 5717 5717 5717 5717 5717 5718 5718 5719 5719 5720 5720 5721 5721 5721 5721 5722 5722 5722 5722 5722 5721 5721 5720 5719 5718 5718 5717
5736 5735 5734 5732 5731 5730 5729 5728 5727 5726 5725 5724 5723 5722 5721 5720 5720 5720 5720 5720 5721 5721 5721 5722 5722 5723 5723 5723 5723 5723 5723 5723 5723 5723 5723 5723 5722 5721 5721 5720 5718 5717 5716
5737 5736 5734 5733 5732 5732 5731 5730 5729 5728 5728 5727 5726 5725 5725 5724 5724 5723 5724 5724 5724 5724 5725 5725 5726 5726 5726 5726 5726 5726 5726 5726 5726 5725 5725 5724 5723 5722 5721 5720 5719 5717 5715
5738 5737 5736 5735 5734 5734 5733 5732 5732 5731 5731 5730 5729 5729 5728 5728 5728 5728 5728 5728 5728 5728 5729 5729 5729 5729 5730 5730 5730 5730 5729 5729 5728 5728 5727 5726 5725 5724 5722 5721 5719 5717 5715
5740 5739 5738 5738 5737 5737 5736 5736 5735 5735 5734 5734 5733 5733 5732 5732 5732 5732 5733 5733 5733 5733 5733 5734 5734 5734 5734 5733 5733 5733 5732 5732 5731 5730 5729 5727 5726 5725 5723 5721 5719 5717 5715
5742 5742 5741 5741 5740 5740 5740 5740 5739 5739 5738 5738 5738 5737 5737 5737 5737 5737 5738 5738 5738 5738 5738 5738 5738 5738 5738 5737 5737 5736 5735 5734 5733 5732 5730 5729 5727 5725 5723 5721 5719 5716 5714
5745 5745 5745 5744 5744 5744 5744 5744 5743 5743 5743 5743 5742 5742 5742 5742 5742 5742 5742 5743 5743 5743 5742 5742 5742 5742 5741 5741 5740 5739 5738 5737 5735 5734 5732 5730 5728 5726 5724 5721 5719 5716 5713
5749 5749 5748 5748 5748 5748 5748 5748 5748 5748 5747 5747 5747 5747 5747 5747 5747 5747 5747 5747 5747 5747 5747 5746 5746 5745 5745 5744 5743 5742 5741 5739 5737 5735 5733 5731 5729 5727 5724 5721 5718 5715 5711
5752 5752 5752 5752 5752 5752 5752 5752 5752 5752 5752 5752 5752 5752 5752 5751 5751 5751 5751 5751 5751 5751 5751 5750 5749 5749 5748 5747 5746 5744 5743 5741 5739 5737 5735 5732 5729 5727 5724 5720 5717 5713 5710
5756 5756 5756 5756 5756 5756 5756 5756 5756 5756 5756 5756 5756 5756 5756 5756 5756 5755 5755 5755 5755 5754 5754 5753 5752 5751 5750 5749 5748 5746 5744 5742 5740 5738 5735 5732 5729 5726 5723 5719 5716 5712 5707
5759 5759 5759 5759 5759 5759 5759 5759 5760 5759 5759 5760 5760 5760 5760 5759 5759 5759 5759 5758 5758 5757 5756 5755 5755 5754 5752 5751 5749 5747 5745 5743 5741 5738 5735 5732 5729 5725 5722 5718 5713 5709 5705
5762 5762 5762 5762 5762 5763 5763 5763 5763 5763 5763 5763 5763 5763 5763 5762 5762 5762 5761 5761 5760 5759 5758 5757 5756 5755 5754 5752 5750 5748 5746 5743 5741 5738 5735 5731 5728 5724 5720 5715 5711 5706 5701
5764 5764 5765 5765 5765 5765 5765 5765 5765 5765 5765 5765 5765 5765 5765 5765 5764 5764 5763 5763 5762 5761 5760 5759 5757 5756 5754 5752 5750 5748 5745 5743 5740 5736 5733 5729 5725 5721 5717 5712 5707 5702 5696
5766 5766 5766 5766 5766 5767 5767 5767 5767 5767 5767 5767 5767 5767 5767 5766 5766 5765 5765 5764 5763 5762 5761 5759 5758 5756 5754 5752 5750 5747 5744 5741 5738 5734 5730 5726 5722 5718 5713 5708 5703 5697 5691